CZ-6A DEB, 56647

Orbit data source: Space-Track

CZ-6A DEB, 56647 is space debris in SSO originally from a launch on Fri, 11 Nov 2022 UTC launched from the Taiyaun Space Center, China (TSC). Debris objects in space refer to the collection of defunct objects orbiting the Earth. Examples of debris include non-operational satellites, rocket bodies, and fragments generated from explosions, collisions, or faulty payload assembly.

Loading next visibility...
Identifier
56647, 2022-151AFX
Orbit
SSO
Country
Flag of CNCN / PRC
Related business
Manufacturer
SAST
Mission
Spacecraft
Bus & Motor
Unknown
Mass
Unknown
Launch date (UTC)
2022-11-11 (4 years ago)
Launch vehicle
Unknown
Launch site
Taiyaun Space Center, China (TSC)
Object type
Payload
Rocket body
Debris
Shape & HBR
Unknown shape, 0.1 m
Radar Cross Section
Small (<0.1 m²)

Expand to show TLE details & history
Last TLE update: 3 days ago

TLE from 3 days ago
0 CZ-6A DEB
1 56647U 22151AFX 26170.26905309  .00000709  00000-0  36294-3 0  9992
2 56647  98.8191 177.6448 0034814 309.9566  49.8552 14.18432165171536
Epoch: 2026-06-19T06:27Z
TLE epoch observation values (Epoch: 2026-06-19T06:27:26.186Z)
Latitude
-0.00012°
Longitude
173.28525°
Altitude
817.436 km
Speed
7.453 km/s
True Right ascension
11h 50m 34s
True Declination
0° 00' 00"
Sunlit
Object was in daylight at epoch
Visualization orbit readout
Latitude
Unknown
Longitude
Unknown
Altitude
Unknown
Speed
Unknown
Apparent Right ascension
Unknown
Apparent Declination
Unknown
Sunlit
N/A
Visualization observer readout
Local Sidereal Time
21:41:11
Azimuth
Unknown
Elevation
Unknown
Doppler factor
Unknown
Orbital elements
Apogee altitude
852.913 km
Perigee altitude
802.739 km
Semi-major axis
7,205.963 km
Eccentricity
0.00348
Inclination
98.8191°
RAAN
177.6448°
Arg. of periapsis
309.9566°
True anomaly
50.16101°
Mean anomaly
49.8552°
Eccentric anomaly
50.00802°
Mean motion
3.54818 °/min
Orbital period
101.46 mins
BSTAR
0.00036294
Loading maneuver chart data...
Computing Atmospheric mass density...
Loading historical data...
Loading historical data...
Loading historical data...
Loading historical data...
Loading historical data...
Loading historical data...
Loading historical data...

Documentation

Showing up to 5 results
|